Regional Weather Roundup
Issued by NWS

Home | Current Version | Previous Version | Graphics & Text | Print | Product List | Glossary On
Versions: 1 2 3 4 5 6 7 8 9 10 11 12 13 14 15 16 17 18 19 20 21 22 23 24 25 26 27 28 29 30 31 32 33 34 35 36 37 38 39 40 41 42 43 44 45 46 47 48 49 50
000
ASUS43 KMPX 220501
RWRMN
WEATHER ROUNDUP FOR MINNESOTA
NATIONAL WEATHER SERVICE TWIN CITIES/CHANHASSEN MN
1200 AM CDT FRI MAY 22 2015


NOTE: "FAIR" INDICATES FEW OR NO CLOUDS BELOW 12,000 FEET WITH NO
SIGNIFICANT WEATHER AND/OR OBSTRUCTIONS TO VISIBILITY. N/A MEANS
CURRENT SKY AND/OR WEATHER CONDITIONS ARE NOT AVAILABLE.

MNZ060>063-068>070-220600-
   Twin Cities Metro

CITY           SKY/WX    TMP DP  RH WIND       PRES   REMARKS
TWIN CITIES    CLEAR     58  36  43 N5        30.09R
ST PAUL        CLEAR     53  42  66 CALM      30.09S
CRYSTAL        CLEAR     51  37  58 CALM      30.08S
BLAINE         CLEAR     52  37  58 CALM      30.09S
LAKEVILLE      CLEAR     50  36  57 CALM      30.09S
EDEN PRAIRIE   CLEAR     56  38  50 NW5       30.09R
SOUTH ST PAUL  CLEAR     54  39  57 CALM      30.09R
LAKE ELMO      FAIR      48  39  71 CALM      30.09S
$$
MNZ001>005-007-008-013>017-022>024-027-028-220600-
   Northwest Minnesota

CITY           SKY/WX    TMP DP  RH WIND       PRES   REMARKS
BEMIDJI        CLEAR     42  34  75 CALM      30.12S
HALLOCK        CLEAR     48  39  71 CALM      30.12S
ROSEAU         CLEAR     50  36  57 CALM      30.12S
WARROAD        PTCLDY    48  37  66 N3        30.12S
THIEF RVR FALL CLEAR     50  34  53 CALM      30.13S
CROOKSTON      CLEAR     54  36  50 CALM      30.14S
FOSSTON        CLEAR     43  36  75 CALM      30.14R
DETROIT LAKES  CLEAR     54  37  54 N3        30.14S
MOORHEAD       CLEAR     54  37  54 N5        30.14S
PARK RAPIDS    CLEAR     48  38  68 CALM      30.12R
MAHNOMEN       FAIR      52  37  55 N3        30.13S
$$
MNZ006-009>011-018-025>026-220600-
   North Central Minnesota

CITY           SKY/WX    TMP DP  RH WIND       PRES   REMARKS
BAUDETTE       CLEAR     44  39  82 CALM      30.11R
FLAG ISLAND    CLEAR     54  39  58 CALM      30.10S
INTL FALLS     CLEAR     36  34  92 CALM      30.10R
WASKISH        CLEAR     41  37  87 CALM      30.12R
BIG FORK       CLEAR     39  32  75 CALM      30.11S
LONGVILLE      CLEAR     41  39  93 CALM      30.11S
GRAND RAPIDS   CLEAR     43  30  61 CALM      30.11S
CRANE LAKE     CLEAR     34  30  86 CALM      30.12R
COOK           CLEAR     39  32  75 CALM      30.11R
WALKER         FAIR      44  37  76 CALM      30.12R
$$
MNZ012-019>021-037-220600-
   Northeast Minnesota

CITY           SKY/WX    TMP DP  RH WIND       PRES   REMARKS
DULUTH         CLEAR     50  30  46 N7        30.09R
ELY            CLEAR     37  28  70 CALM      30.10R
HIBBING        CLEAR     37  29  72 CALM      30.10R
EVELETH        CLEAR     43  30  61 CALM      30.11R
DULUTH HARBOR  CLEAR     52  36  54 CALM      30.10R
TWO HARBORS    CLEAR     54  32  43 N3        30.07R
SILVER BAY     CLEAR     45  30  57 CALM      30.08R
GRAND MARAIS     N/A     40  35  83 NE6       30.09R
G MARAIS ARPRT CLEAR     36  23  60 N6        30.09R
$$
MNZ029>031-032-039>041-046>048-054>057-064-220600-
   West Central Minnesota

CITY           SKY/WX    TMP DP  RH WIND       PRES   REMARKS
FERGUS FALLS   CLEAR     54  37  54 CALM      30.14S
WHEATON        CLEAR     48  36  61 CALM      30.15S
MORRIS         CLEAR     55  37  50 N7        30.12S
ALEXANDRIA     CLEAR     50  38  63 NW5       30.13S
ELBOW LAKE     FAIR      53  39  59 CALM      30.13S
WADENA         CLEAR     46  37  71 CALM      30.12S
GLENWOOD       CLEAR     55  37  50 N6        30.13R
APPLETON       CLEAR     52  37  58 CALM      30.13R
BENSON         CLEAR     50  39  66 N6        30.13S
ORTONVILLE     CLEAR     54  36  50 CALM      30.13S
MADISON        CLEAR     52  36  54 NW3       30.13S
WILLMAR        FAIR      52  39  62 CALM      30.13S
$$
MNZ033>034-036-042>043-049>051-058-059-220600-
   Central Minnesota

CITY           SKY/WX    TMP DP  RH WIND       PRES   REMARKS
ST CLOUD       CLEAR     47  40  76 CALM      30.11R
SAUK CENTRE    FAIR      50  38  64 CALM      30.12S
PAYNESVILLE    CLEAR     47  36  64 CALM      30.12R
AITKIN         CLEAR     43  36  75 CALM      30.10R
PINE RIVER     CLEAR     43  37  81 CALM      30.15R HAZE
BRAINERD       CLEAR     44  38  79 CALM      30.12R
STAPLES        CLEAR     46  37  71 CALM      30.12S
LONG PRAIRIE   FAIR      50  37  62 CALM      30.13R
LITTLE FALLS   CLEAR     45  39  81 CALM      30.11S
LITCHFIELD     CLEAR     55  37  50 NW3       30.12R
BUFFALO        CLEAR     50  41  69 CALM      30.11S
MAPLE LAKE     CLEAR     47  43  86 W3        30.11R
$$
MNZ037-044-045-052-053-220600-
   East Central Minnesota

CITY           SKY/WX    TMP DP  RH WIND       PRES   REMARKS
PRINCETON      CLEAR     48  37  66 CALM      30.11R
MORA           CLEAR     50  34  53 CALM      30.12R
CAMBRIDGE      CLEAR     57  37  47 CALM      30.08S
RUSH CITY      CLEAR     53  35  50 CALM      30.10R
MOOSE LAKE     CLEAR     46  32  57 CALM      30.09R
HINCKLEY       FAIR      52  34  50 NW6       30.10R
CLOQUET        CLEAR     46  30  53 NW5       30.10R
MCGREGOR       CLEAR     50  32  50 CALM      30.11R
$$
MNZ071>073-080-081-089-090-097-098-220600-
   Southwest Minnesota

CITY           SKY/WX    TMP DP  RH WIND       PRES   REMARKS
MONTEVIDEO     CLEAR     55  37  50 N6        30.14R
GRANITE FALLS  CLEAR     56  35  46 NW7       30.14S
CANBY          CLEAR     49  35  56 W5        30.15S
MARSHALL       CLEAR     52  30  43 W7        30.14R
REDWOOD FALLS  CLEAR     56  34  43 NW7       30.12R
OLIVIA         CLEAR     50  34  53 NW3       30.12R
PIPESTONE      CLEAR     55  36  47 CALM      30.15S
WINDOM         CLEAR     52  34  50 CALM      30.14R
WORTHINGTON    CLEAR     48  28  46 NW3       30.15S
JACKSON        CLEAR     50  30  46 NW5       30.14S
TRACY          CLEAR     55  32  41 W3        30.15R
SLAYTON        CLEAR     51  33  49 CALM      30.16R
$$
MNZ065>067-074>077-082>085-091>093-220600-
   South Central Minnesota

CITY           SKY/WX    TMP DP  RH WIND       PRES   REMARKS
MANKATO        CLEAR     57  32  38 W3        30.11R
NEW ULM        CLEAR     54  34  47 W7        30.11S
ST JAMES       CLEAR     54  30  40 W6        30.13S
FAIRMONT       FAIR      54  30  40 NW7       30.12S
GLENCOE        CLEAR     54  41  62 NW5       30.10R
FARIBAULT      FAIR      48  39  71 CALM      30.10R
OWATONNA       CLEAR     48  37  66 CALM      30.10R
WASECA         CLEAR     52  34  50 CALM      30.11S
ALBERT LEA     CLEAR     50  45  81 CALM      30.10S
$$
MNZ078>079-086>088-094>096-220600-
   Southeast Minnesota

CITY           SKY/WX    TMP DP  RH WIND       PRES   REMARKS
ROCHESTER      CLEAR     53  32  44 NW7       30.10R
RED WING       CLEAR     50  37  62 CALM      30.07R
STANTON        CLEAR     48  37  64 S5        30.08R
DODGE CENTER   PTCLDY    50  36  57 W3        30.10R
WINONA         CLEAR     54  41  62 CALM      30.07R
AUSTIN         CLEAR     52  39  62 CALM      30.10R
PRESTON        CLEAR     53  34  49 NW6       30.09R
$$
ABBREVIATIONS USED IN REMARKS
   TC - TEMPERATURES IN CELSIUS
  WCI - WIND CHILL INDEX
   HX - HEAT INDEX
  VSB - VISIBILITY
$$


USA.gov is the U.S. government's official web portal to all federal, state and local government web resources and services.